| time (UTC) | temp F | wind direction | speed knots | gust knots | rain 1hr in | rain 24hr in | rain mn in | humidity % | barometer mb |
| 20260502151845 | 57 | 208 | 11.3 | 17.4 | 0.00 | 0.00 | 0.00 | 42 | 1010.7 |
| 20260502151320 | 58 | 200 | 13.0 | 20.9 | 0.00 | 0.00 | 0.00 | 41 | 1010.7 |
| 20260502150815 | 58 | 232 | 13.9 | 20.9 | 0.00 | 0.00 | 0.00 | 41 | 1010.7 |
| 20260502150333 | 57 | 205 | 14.8 | 20.0 | 0.00 | 0.00 | 0.00 | 43 | 1010.9 |
| 20260502130342 | 47 | 190 | 6.1 | 9.6 | 0.00 | 0.00 | 0.00 | 50 | 1012.7 |
| 20260502123326 | 47 | 204 | 4.3 | 10.4 | 0.00 | 0.00 | 0.00 | 51 | 1013.2 |
| 20260502122841 | 46 | 218 | 7.8 | 10.4 | 0.00 | 0.00 | 0.00 | 51 | 1013.2 |
| 20260502122333 | 46 | 213 | 7.0 | 10.4 | 0.00 | 0.00 | 0.00 | 53 | 1013.2 |
| 20260502121827 | 45 | 186 | 6.1 | 10.4 | 0.00 | 0.00 | 0.00 | 54 | 1013.3 |
| 20260502121324 | 45 | 193 | 4.3 | 7.8 | 0.00 | 0.00 | 0.00 | 55 | 1013.3 |
| 20260502120817 | 44 | 217 | 3.5 | 7.8 | 0.00 | 0.00 | 0.00 | 55 | 1013.3 |
| 20260502120334 | 44 | 231 | 4.3 | 8.7 | 0.00 | 0.00 | 0.00 | 54 | 1013.3 |
| 20260502115825 | 44 | 213 | 5.2 | 8.7 | 0.00 | 0.00 | 0.00 | 54 | 1013.3 |
| 20260502115355 | 44 | 190 | 0.9 | 9.6 | 0.00 | 0.00 | 0.00 | 53 | 1013.3 |
| 20260502114828 | 45 | 169 | 1.7 | 9.6 | 0.00 | 0.00 | 0.00 | 53 | 1013.7 |
| 20260502113831 | 45 | 178 | 2.6 | 7.8 | 0.00 | 0.00 | 0.00 | 53 | 1013.7 |
| 20260502113326 | 45 | 209 | 4.3 | 7.8 | 0.00 | 0.00 | 0.00 | 54 | 1013.8 |
| 20260502112843 | 44 | 190 | 4.3 | 7.8 | 0.00 | 0.00 | 0.00 | 55 | 1013.8 |
| 20260502112333 | 43 | 208 | 0.9 | 4.3 | 0.00 | 0.00 | 0.00 | 55 | 1013.8 |
| 20260502111826 | 44 | 209 | 1.7 | 3.5 | 0.00 | 0.00 | 0.00 | 55 | 1013.9 |
| 20260502111320 | 43 | 209 | 0.9 | 2.6 | 0.00 | 0.00 | 0.00 | 55 | 1013.9 |
| 20260502110854 | 44 | 209 | 0.9 | 2.6 | 0.00 | 0.00 | 0.00 | 55 | 1013.9 |
| 20260502110329 | 43 | 209 | 1.7 | 5.2 | 0.00 | 0.00 | 0.00 | 55 | 1013.9 |
| 20260502105823 | 43 | 217 | 1.7 | 5.2 | 0.00 | 0.00 | 0.00 | 55 | 1013.9 |
| 20260502105320 | 43 | 188 | 2.6 | 4.3 | 0.00 | 0.00 | 0.00 | 56 | 1013.9 |
| 20260502104832 | 43 | 178 | 1.7 | 6.1 | 0.00 | 0.00 | 0.00 | 56 | 1014.1 |
| 20260502104330 | 43 | 242 | 2.6 | 8.7 | 0.00 | 0.00 | 0.00 | 55 | 1014.1 |
| 20260502103823 | 43 | 240 | 2.6 | 9.6 | 0.00 | 0.00 | 0.00 | 54 | 1014.1 |
| 20260502103319 | 44 | 207 | 5.2 | 9.6 | 0.00 | 0.00 | 0.00 | 53 | 1014.0 |
| 20260502102834 | 44 | 205 | 7.0 | 11.3 | 0.00 | 0.00 | 0.00 | 53 | 1014.0 |
| 20260502102328 | 45 | 175 | 7.0 | 11.3 | 0.00 | 0.00 | 0.00 | 52 | 1014.0 |
| 20260502101842 | 45 | 202 | 8.7 | 13.0 | 0.00 | 0.00 | 0.00 | 52 | 1014.0 |
| 20260502101332 | 45 | 194 | 7.8 | 13.0 | 0.00 | 0.00 | 0.00 | 52 | 1014.0 |
| 20260502100828 | 45 | 173 | 7.0 | 12.2 | 0.00 | 0.00 | 0.00 | 53 | 1014.0 |
| 20260502100323 | 45 | 177 | 7.8 | 12.2 | 0.00 | 0.00 | 0.00 | 52 | 1014.1 |
| 20260502091328 | 45 | 166 | 11.3 | 16.5 | 0.00 | 0.00 | 0.00 | 52 | 1013.2 |
| 20260502090826 | 45 | 165 | 10.4 | 14.8 | 0.00 | 0.00 | 0.00 | 52 | 1013.2 |
| 20260502090323 | 45 | 171 | 8.7 | 11.3 | 0.00 | 0.00 | 0.00 | 53 | 1013.8 |
| 20260502071321 | 43 | 180 | 0.9 | 3.5 | 0.00 | 0.00 | 0.00 | 55 | 1015.1 |
| 20260502070817 | 43 | 180 | 1.7 | 3.5 | 0.00 | 0.00 | 0.00 | 54 | 1015.1 |
| 20260502070333 | 43 | 180 | 0.0 | 3.5 | 0.00 | 0.00 | 0.00 | 54 | 1015.1 |
| 20260502065833 | 43 | 180 | 0.0 | 5.2 | 0.00 | 0.00 | 0.00 | 53 | 1015.1 |
| 20260502065329 | 45 | 180 | 3.5 | 5.2 | 0.00 | 0.00 | 0.00 | 52 | 1015.1 |
| 20260502064845 | 44 | 195 | 2.6 | 5.2 | 0.00 | 0.00 | 0.00 | 53 | 1015.4 |
| 20260502064321 | 43 | 169 | 0.9 | 4.3 | 0.00 | 0.00 | 0.00 | 54 | 1015.4 |
| 20260502063819 | 43 | 192 | 2.6 | 4.3 | 0.00 | 0.00 | 0.00 | 53 | 1015.4 |
| 20260502063330 | 43 | 200 | 3.5 | 4.3 | 0.00 | 0.00 | 0.00 | 54 | 1015.6 |
| 20260502062826 | 43 | 214 | 3.5 | 4.3 | 0.00 | 0.00 | 0.00 | 54 | 1015.6 |
| 20260502062342 | 43 | 198 | 3.5 | 5.2 | 0.00 | 0.00 | 0.00 | 54 | 1015.6 |
| 20260502061832 | 43 | 198 | 4.3 | 6.1 | 0.00 | 0.00 | 0.00 | 54 | 1015.6 |
| 20260502061329 | 42 | 197 | 3.5 | 5.2 | 0.00 | 0.00 | 0.00 | 55 | 1015.6 |
| 20260502060826 | 43 | 197 | 3.5 | 6.1 | 0.00 | 0.00 | 0.00 | 55 | 1015.6 |
| 20260502060322 | 42 | 195 | 4.3 | 6.1 | 0.00 | 0.00 | 0.00 | 55 | 1015.7 |
| 20260502055819 | 42 | 200 | 4.3 | 6.1 | 0.00 | 0.00 | 0.00 | 55 | 1015.7 |
| 20260502055315 | 42 | 205 | 4.3 | 6.1 | 0.00 | 0.00 | 0.00 | 55 | 1015.7 |
| 20260502054833 | 42 | 208 | 4.3 | 7.8 | 0.00 | 0.00 | 0.00 | 54 | 1015.7 |
| 20260502054329 | 43 | 200 | 5.2 | 8.7 | 0.00 | 0.00 | 0.00 | 54 | 1015.7 |
| 20260502053826 | 42 | 204 | 7.0 | 8.7 | 0.00 | 0.00 | 0.00 | 54 | 1015.7 |
| 20260502053322 | 43 | 209 | 2.6 | 9.6 | 0.00 | 0.00 | 0.00 | 52 | 1015.7 |
| 20260502052817 | 43 | 195 | 5.2 | 9.6 | 0.00 | 0.00 | 0.00 | 52 | 1015.7 |
| 20260502052334 | 43 | 184 | 6.1 | 9.6 | 0.00 | 0.00 | 0.00 | 52 | 1015.7 |
| 20260502051829 | 43 | 194 | 6.1 | 8.7 | 0.00 | 0.00 | 0.00 | 52 | 1015.7 |
| 20260502051323 | 43 | 217 | 4.3 | 6.1 | 0.00 | 0.00 | 0.00 | 52 | 1015.7 |
| 20260502050839 | 44 | 203 | 3.5 | 9.6 | 0.00 | 0.00 | 0.00 | 50 | 1015.7 |
| 20260502050332 | 45 | 202 | 5.2 | 9.6 | 0.00 | 0.00 | 0.00 | 49 | 1015.7 |
| 20260502045821 | 45 | 198 | 6.1 | 8.7 | 0.00 | 0.00 | 0.00 | 49 | 1015.7 |
| 20260502045315 | 45 | 194 | 6.1 | 8.7 | 0.00 | 0.00 | 0.00 | 48 | 1015.7 |
| 20260502044832 | 46 | 194 | 6.1 | 9.6 | 0.00 | 0.00 | 0.00 | 47 | 1015.7 |
| 20260502044327 | 46 | 179 | 7.0 | 9.6 | 0.00 | 0.00 | 0.00 | 48 | 1015.7 |
| 20260502043823 | 46 | 200 | 7.0 | 9.6 | 0.00 | 0.00 | 0.00 | 47 | 1015.7 |
| 20260502043317 | 46 | 185 | 6.1 | 8.7 | 0.00 | 0.00 | 0.00 | 47 | 1015.9 |
| 20260502042833 | 46 | 200 | 7.8 | 8.7 | 0.00 | 0.00 | 0.00 | 47 | 1015.9 |
| 20260502042328 | 47 | 189 | 5.2 | 9.6 | 0.00 | 0.00 | 0.00 | 46 | 1015.9 |
| 20260502041842 | 48 | 165 | 5.2 | 9.6 | 0.00 | 0.00 | 0.00 | 44 | 1016.0 |
| 20260502041319 | 47 | 173 | 6.1 | 8.7 | 0.00 | 0.00 | 0.00 | 46 | 1016.0 |
| 20260502040836 | 47 | 186 | 6.1 | 8.7 | 0.00 | 0.00 | 0.00 | 46 | 1016.0 |
| 20260502040329 | 47 | 185 | 5.2 | 8.7 | 0.00 | 0.00 | 0.00 | 46 | 1016.0 |
| 20260502035844 | 48 | 183 | 7.0 | 9.6 | 0.00 | 0.00 | 0.00 | 45 | 1016.0 |
| 20260502035356 | 47 | 170 | 6.1 | 9.6 | 0.00 | 0.00 | 0.00 | 46 | 1016.0 |
| 20260502034829 | 46 | 192 | 5.2 | 6.1 | 0.00 | 0.00 | 0.00 | 46 | 1016.0 |
| 20260502034326 | 47 | 192 | 4.3 | 6.1 | 0.00 | 0.00 | 0.00 | 45 | 1016.0 |
| 20260502033841 | 46 | 190 | 5.2 | 6.1 | 0.00 | 0.00 | 0.00 | 46 | 1016.0 |
| 20260502033317 | 46 | 189 | 5.2 | 6.1 | 0.00 | 0.00 | 0.00 | 45 | 1016.0 |
| 20260502032832 | 46 | 188 | 4.3 | 6.1 | 0.00 | 0.00 | 0.00 | 46 | 1016.0 |
| 20260502032327 | 46 | 182 | 5.2 | 6.1 | 0.00 | 0.00 | 0.00 | 46 | 1016.0 |
| 20260502031822 | 45 | 192 | 4.3 | 7.0 | 0.00 | 0.00 | 0.00 | 47 | 1015.9 |
| 20260502031318 | 46 | 192 | 4.3 | 7.0 | 0.00 | 0.00 | 0.00 | 45 | 1015.9 |
| 20260502030854 | 47 | 186 | 5.2 | 6.1 | 0.00 | 0.00 | 0.00 | 45 | 1015.9 |
| 20260502030329 | 47 | 186 | 5.2 | 7.0 | 0.00 | 0.00 | 0.00 | 44 | 1015.8 |
| 20260502025827 | 48 | 187 | 5.2 | 7.8 | 0.00 | 0.00 | 0.00 | 44 | 1015.8 |
| 20260502025322 | 47 | 180 | 6.1 | 7.8 | 0.00 | 0.00 | 0.00 | 46 | 1015.8 |
| 20260502024835 | 45 | 197 | 4.3 | 5.2 | 0.00 | 0.00 | 0.00 | 48 | 1015.7 |
| 20260502024330 | 46 | 197 | 4.3 | 5.2 | 0.00 | 0.00 | 0.00 | 47 | 1015.7 |
| 20260502023825 | 46 | 197 | 4.3 | 5.2 | 0.00 | 0.00 | 0.00 | 46 | 1015.7 |
| 20260502023341 | 46 | 188 | 4.3 | 5.2 | 0.00 | 0.00 | 0.00 | 46 | 1015.7 |
| 20260502022815 | 48 | 198 | 3.5 | 4.3 | 0.00 | 0.00 | 0.00 | 43 | 1015.7 |
| 20260502022333 | 48 | 215 | 2.6 | 3.5 | 0.00 | 0.00 | 0.00 | 43 | 1015.7 |
| 20260502021849 | 49 | 224 | 2.6 | 4.3 | 0.00 | 0.00 | 0.00 | 42 | 1015.7 |
| 20260502021324 | 49 | 230 | 2.6 | 3.5 | 0.00 | 0.00 | 0.00 | 41 | 1015.7 |
| 20260502020818 | 50 | 200 | 2.6 | 4.3 | 0.00 | 0.00 | 0.00 | 41 | 1015.7 |
| 20260502020333 | 50 | 202 | 3.5 | 4.3 | 0.00 | 0.00 | 0.00 | 39 | 1015.7 |
| 20260502015829 | 51 | 227 | 2.6 | 3.5 | 0.00 | 0.00 | 0.00 | 38 | 1015.7 |
| 20260502015325 | 51 | 219 | 2.6 | 3.5 | 0.00 | 0.00 | 0.00 | 39 | 1015.7 |
| 20260502014855 | 52 | 219 | 2.6 | 3.5 | 0.00 | 0.00 | 0.00 | 37 | 1015.7 |
| 20260502014329 | 53 | 219 | 2.6 | 3.5 | 0.00 | 0.00 | 0.00 | 37 | 1015.7 |
| 20260502013825 | 54 | 219 | 2.6 | 2.6 | 0.00 | 0.00 | 0.00 | 35 | 1015.7 |
| 20260502013320 | 55 | 219 | 1.7 | 2.6 | 0.00 | 0.00 | 0.00 | 35 | 1015.6 |
| 20260502012815 | 56 | 219 | 1.7 | 2.6 | 0.00 | 0.00 | 0.00 | 34 | 1015.6 |
| 20260502012333 | 56 | 219 | 1.7 | 2.6 | 0.00 | 0.00 | 0.00 | 33 | 1015.6 |
| 20260502011829 | 57 | 219 | 1.7 | 3.5 | 0.00 | 0.00 | 0.00 | 32 | 1015.6 |
| 20260502011324 | 58 | 219 | 2.6 | 7.8 | 0.00 | 0.00 | 0.00 | 32 | 1015.6 |
| 20260502010819 | 58 | 223 | 3.5 | 7.8 | 0.00 | 0.00 | 0.00 | 32 | 1015.6 |
| 20260502010334 | 59 | 208 | 4.3 | 6.1 | 0.00 | 0.00 | 0.00 | 31 | 1015.7 |
| 20260502005828 | 59 | 250 | 2.6 | 4.3 | 0.00 | 0.00 | 0.00 | 31 | 1015.7 |
| 20260502005325 | 60 | 277 | 2.6 | 4.3 | 0.00 | 0.00 | 0.00 | 30 | 1015.7 |
| 20260502004818 | 60 | 271 | 2.6 | 4.3 | 0.00 | 0.00 | 0.00 | 29 | 1015.8 |
| 20260502004318 | 60 | 275 | 0.0 | 0.0 | 0.00 | 0.00 | 0.00 | 28 | 1015.8 |
| 20260502003856 | 61 | 276 | 0.0 | 0.0 | 0.00 | 0.00 | 0.00 | 28 | 1015.8 |
| 20260502003329 | 61 | 259 | 0.0 | 0.0 | 0.00 | 0.00 | 0.00 | 27 | 1015.8 |
| 20260502002824 | 61 | 264 | 0.0 | 0.0 | 0.00 | 0.00 | 0.00 | 28 | 1015.8 |
| 20260502002318 | 61 | 240 | 0.0 | 0.0 | 0.00 | 0.00 | 0.00 | 27 | 1015.8 |
| 20260502001833 | 61 | 271 | 0.0 | 0.0 | 0.00 | 0.00 | 0.00 | 27 | 1015.9 |
| 20260502001332 | 62 | 234 | 0.0 | 0.0 | 0.00 | 0.00 | 0.00 | 26 | 1015.9 |
| 20260502000826 | 61 | 302 | 0.0 | 0.0 | 0.00 | 0.00 | 0.00 | 29 | 1015.9 |
| 20260502000325 | 61 | 254 | 0.0 | 0.0 | 0.00 | 0.00 | 0.00 | 28 | 1015.9 |
| 20260501235819 | 61 | 276 | 0.0 | 0.0 | 0.00 | 0.00 | 0.00 | 26 | 1015.9 |
| 20260501235336 | 62 | 252 | 0.0 | 0.0 | 0.00 | 0.00 | 0.00 | 27 | 1015.9 |
| 20260501234829 | 65 | 329 | 0.0 | 0.0 | 0.00 | 0.00 | 0.00 | 25 | 1015.9 |
| 20260501234325 | 65 | 36 | 0.0 | 0.0 | 0.00 | 0.00 | 0.00 | 26 | 1015.9 |
| 20260501233821 | 62 | 28 | 0.0 | 0.0 | 0.00 | 0.00 | 0.00 | 26 | 1015.9 |
| 20260501233316 | 63 | 340 | 0.0 | 0.0 | 0.00 | 0.00 | 0.00 | 26 | 1016.0 |
| 20260501232834 | 62 | 290 | 0.0 | 0.0 | 0.00 | 0.00 | 0.00 | 26 | 1016.0 |
| 20260501232331 | 61 | 269 | 0.0 | 6.1 | 0.00 | 0.00 | 0.00 | 28 | 1016.0 |
| 20260501231826 | 61 | 296 | 0.0 | 8.7 | 0.00 | 0.00 | 0.00 | 29 | 1016.0 |
| 20260501231322 | 61 | 240 | 5.2 | 8.7 | 0.00 | 0.00 | 0.00 | 29 | 1016.0 |
| 20260501230818 | 61 | 288 | 6.1 | 9.6 | 0.00 | 0.00 | 0.00 | 28 | 1016.0 |
| 20260501230355 | 61 | 300 | 4.3 | 9.6 | 0.00 | 0.00 | 0.00 | 27 | 1016.1 |
| 20260501225829 | 60 | 284 | 1.7 | 6.1 | 0.00 | 0.00 | 0.00 | 29 | 1016.1 |
| 20260501225325 | 60 | 317 | 2.6 | 3.5 | 0.00 | 0.00 | 0.00 | 28 | 1016.1 |
| 20260501224901 | 61 | 307 | 0.0 | 0.0 | 0.00 | 0.00 | 0.00 | 27 | 1016.1 |
| 20260501224332 | 61 | 300 | 0.0 | 0.0 | 0.00 | 0.00 | 0.00 | 28 | 1016.1 |
| 20260501223827 | 61 | 244 | 0.0 | 0.0 | 0.00 | 0.00 | 0.00 | 30 | 1016.1 |
| 20260501223323 | 62 | 278 | 0.0 | 0.0 | 0.00 | 0.00 | 0.00 | 28 | 1016.1 |
| 20260501222816 | 62 | 254 | 0.0 | 0.0 | 0.00 | 0.00 | 0.00 | 27 | 1016.1 |
| 20260501222335 | 61 | 222 | 0.0 | 0.0 | 0.00 | 0.00 | 0.00 | 28 | 1016.1 |
| 20260501221851 | 61 | 288 | 0.0 | 0.0 | 0.00 | 0.00 | 0.00 | 31 | 1016.2 |
| 20260501221324 | 62 | 231 | 0.0 | 9.6 | 0.00 | 0.00 | 0.00 | 27 | 1016.2 |
| 20260501220818 | 63 | 326 | 0.9 | 9.6 | 0.00 | 0.00 | 0.00 | 28 | 1016.2 |
| 20260501220335 | 63 | 229 | 0.9 | 4.3 | 0.00 | 0.00 | 0.00 | 29 | 1016.6 |
| 20260501215325 | 60 | 330 | 3.5 | 8.7 | 0.00 | 0.00 | 0.00 | 29 | 1016.6 |
| 20260501214819 | 61 | 24 | 2.6 | 3.5 | 0.00 | 0.00 | 0.00 | 29 | 1016.8 |
| 20260501214334 | 62 | 113 | 0.0 | 5.2 | 0.00 | 0.00 | 0.00 | 28 | 1016.8 |
| 20260501213829 | 62 | 5 | 3.5 | 5.2 | 0.00 | 0.00 | 0.00 | 29 | 1016.8 |
| 20260501213323 | 60 | 335 | 0.0 | 2.6 | 0.00 | 0.00 | 0.00 | 30 | 1016.8 |
| 20260501212818 | 61 | 326 | 1.7 | 10.4 | 0.00 | 0.00 | 0.00 | 30 | 1016.8 |
| 20260501212316 | 62 | 355 | 4.3 | 10.4 | 0.00 | 0.00 | 0.00 | 28 | 1016.8 |
| 20260501211834 | 63 | 360 | 6.1 | 9.6 | 0.00 | 0.00 | 0.00 | 28 | 1016.9 |
| 20260501211349 | 62 | 130 | 0.0 | 8.7 | 0.00 | 0.00 | 0.00 | 27 | 1016.9 |
| 20260501210824 | 62 | 337 | 3.5 | 8.7 | 0.00 | 0.00 | 0.00 | 29 | 1016.9 |
| 20260501210319 | 61 | 250 | 1.7 | 6.1 | 0.00 | 0.00 | 0.00 | 31 | 1016.5 |
| 20260501205817 | 60 | 355 | 2.6 | 7.0 | 0.00 | 0.00 | 0.00 | 32 | 1016.5 |
| 20260501205336 | 59 | 327 | 3.5 | 11.3 | 0.00 | 0.00 | 0.00 | 32 | 1016.5 |
| 20260501204831 | 59 | 355 | 8.7 | 11.3 | 0.00 | 0.00 | 0.00 | 33 | 1016.4 |
| 20260501204345 | 60 | 69 | 2.6 | 8.7 | 0.00 | 0.00 | 0.00 | 31 | 1016.4 |
| 20260501203820 | 60 | 66 | 4.3 | 11.3 | 0.00 | 0.00 | 0.00 | 30 | 1016.4 |
| 20260501203334 | 60 | 30 | 6.1 | 11.3 | 0.00 | 0.00 | 0.00 | 30 | 1016.4 |
| 20260501202830 | 62 | 34 | 7.0 | 10.4 | 0.00 | 0.00 | 0.00 | 30 | 1016.4 |
| 20260501202326 | 62 | 5 | 6.1 | 11.3 | 0.00 | 0.00 | 0.00 | 32 | 1016.4 |
| 20260501201837 | 61 | 5 | 8.7 | 11.3 | 0.00 | 0.00 | 0.00 | 31 | 1016.6 |
| 20260501201355 | 60 | 62 | 5.2 | 9.6 | 0.00 | 0.00 | 0.00 | 34 | 1016.6 |
| 20260501200850 | 59 | 360 | 7.0 | 11.3 | 0.00 | 0.00 | 0.00 | 32 | 1016.6 |
| 20260501200328 | 60 | 15 | 7.8 | 13.0 | 0.00 | 0.00 | 0.00 | 31 | 1016.5 |
| 20260501195845 | 62 | 74 | 9.6 | 13.0 | 0.00 | 0.00 | 0.00 | 30 | 1016.5 |
| 20260501195322 | 62 | 20 | 6.1 | 11.3 | 0.00 | 0.00 | 0.00 | 30 | 1016.5 |
| 20260501194817 | 61 | 250 | 6.1 | 9.6 | 0.00 | 0.00 | 0.00 | 31 | 1016.7 |
| 20260501194336 | 61 | 342 | 6.1 | 18.2 | 0.00 | 0.00 | 0.00 | 30 | 1016.7 |
| 20260501193831 | 62 | 15 | 6.1 | 18.2 | 0.00 | 0.00 | 0.00 | 34 | 1016.7 |
| 20260501193327 | 61 | 276 | 4.3 | 7.0 | 0.00 | 0.00 | 0.00 | 34 | 1016.8 |
| 20260501192823 | 60 | 65 | 2.6 | 8.7 | 0.00 | 0.00 | 0.00 | 31 | 1016.8 |
| 20260501192341 | 60 | 321 | 6.1 | 9.6 | 0.00 | 0.00 | 0.00 | 34 | 1016.8 |
| 20260501191842 | 62 | 331 | 6.1 | 9.6 | 0.00 | 0.00 | 0.00 | 32 | 1017.0 |
| 20260501191333 | 61 | 34 | 3.5 | 15.6 | 0.00 | 0.00 | 0.00 | 34 | 1017.0 |
| 20260501190829 | 59 | 355 | 9.6 | 15.6 | 0.00 | 0.00 | 0.00 | 32 | 1017.0 |
| 20260501190324 | 59 | 325 | 9.6 | 14.8 | 0.00 | 0.00 | 0.00 | 34 | 1017.1 |
| 20260501185821 | 60 | 355 | 12.2 | 14.8 | 0.00 | 0.00 | 0.00 | 34 | 1017.1 |
| 20260501185339 | 61 | 13 | 7.8 | 10.4 | 0.00 | 0.00 | 0.00 | 32 | 1017.1 |
| 20260501184853 | 60 | 34 | 6.1 | 10.4 | 0.00 | 0.00 | 0.00 | 34 | 1017.3 |
| 20260501184328 | 61 | 286 | 7.8 | 12.2 | 0.00 | 0.00 | 0.00 | 32 | 1017.3 |
| 20260501183824 | 60 | 17 | 7.8 | 12.2 | 0.00 | 0.00 | 0.00 | 34 | 1017.3 |
| 20260501183341 | 59 | 339 | 1.7 | 10.4 | 0.00 | 0.00 | 0.00 | 33 | 1017.5 |
| 20260501182820 | 59 | 17 | 0.9 | 13.0 | 0.00 | 0.00 | 0.00 | 32 | 1017.5 |
| 20260501182355 | 59 | 360 | 7.8 | 13.0 | 0.00 | 0.00 | 0.00 | 34 | 1017.5 |
| 20260501181830 | 59 | 298 | 1.7 | 8.7 | 0.00 | 0.00 | 0.00 | 34 | 1017.5 |
| 20260501181326 | 59 | 10 | 4.3 | 8.7 | 0.00 | 0.00 | 0.00 | 34 | 1017.5 |
| 20260501180822 | 59 | 300 | 0.9 | 15.6 | 0.00 | 0.00 | 0.00 | 34 | 1017.5 |
| 20260501180318 | 59 | 54 | 7.8 | 15.6 | 0.00 | 0.00 | 0.00 | 33 | 1017.6 |
| 20260501175854 | 59 | 31 | 9.6 | 14.8 | 0.00 | 0.00 | 0.00 | 33 | 1017.6 |
| 20260501175330 | 60 | 26 | 12.2 | 14.8 | 0.00 | 0.00 | 0.00 | 33 | 1017.6 |
| 20260501174825 | 58 | 355 | 4.3 | 13.9 | 0.00 | 0.00 | 0.00 | 35 | 1017.6 |
| 20260501174321 | 59 | 351 | 7.0 | 16.5 | 0.00 | 0.00 | 0.00 | 34 | 1017.6 |
| 20260501173837 | 58 | 338 | 4.3 | 18.2 | 0.00 | 0.00 | 0.00 | 34 | 1017.6 |
| 20260501173352 | 58 | 338 | 8.7 | 18.2 | 0.00 | 0.00 | 0.00 | 35 | 1017.9 |
| 20260501172827 | 58 | 24 | 6.1 | 12.2 | 0.00 | 0.00 | 0.00 | 33 | 1017.9 |
| 20260501172323 | 58 | 29 | 5.2 | 9.6 | 0.00 | 0.00 | 0.00 | 34 | 1017.9 |
| 20260501171820 | 58 | 45 | 6.1 | 11.3 | 0.00 | 0.00 | 0.00 | 36 | 1018.0 |
| 20260501171336 | 57 | 334 | 6.1 | 11.3 | 0.00 | 0.00 | 0.00 | 35 | 1018.0 |
| 20260501170852 | 58 | 45 | 6.1 | 10.4 | 0.00 | 0.00 | 0.00 | 35 | 1018.0 |
| 20260501170330 | 58 | 72 | 7.0 | 8.7 | 0.00 | 0.00 | 0.00 | 34 | 1018.0 |
| 20260501165826 | 58 | 5 | 2.6 | 10.4 | 0.00 | 0.00 | 0.00 | 36 | 1018.0 |
| 20260501165324 | 57 | 12 | 7.0 | 10.4 | 0.00 | 0.00 | 0.00 | 37 | 1018.0 |
| 20260501164842 | 57 | 13 | 1.7 | 8.7 | 0.00 | 0.00 | 0.00 | 37 | 1017.9 |
| 20260501164358 | 56 | 360 | 4.3 | 11.3 | 0.00 | 0.00 | 0.00 | 36 | 1017.9 |
| 20260501163850 | 56 | 288 | 6.1 | 12.2 | 0.00 | 0.00 | 0.00 | 37 | 1017.9 |
| 20260501163339 | 56 | 25 | 8.7 | 11.3 | 0.00 | 0.00 | 0.00 | 37 | 1018.2 |
| 20260501162831 | 56 | 331 | 3.5 | 9.6 | 0.00 | 0.00 | 0.00 | 35 | 1018.2 |
| 20260501161841 | 55 | 288 | 3.5 | 10.4 | 0.00 | 0.00 | 0.00 | 38 | 1018.1 |
| 20260501161353 | 55 | 22 | 2.6 | 12.2 | 0.00 | 0.00 | 0.00 | 36 | 1018.1 |
| 20260501160828 | 55 | 355 | 7.8 | 12.2 | 0.00 | 0.00 | 0.00 | 37 | 1018.1 |
| 20260501160320 | 56 | 338 | 4.3 | 12.2 | 0.00 | 0.00 | 0.00 | 36 | 1018.2 |
| 20260501155831 | 56 | 342 | 7.8 | 11.3 | 0.00 | 0.00 | 0.00 | 37 | 1018.2 |
| 20260501155327 | 55 | 27 | 7.8 | 10.4 | 0.00 | 0.00 | 0.00 | 37 | 1018.2 |
| 20260501154818 | 54 | 333 | 7.0 | 9.6 | 0.00 | 0.00 | 0.00 | 38 | 1018.1 |
| 20260501154333 | 54 | 355 | 4.3 | 10.4 | 0.00 | 0.00 | 0.00 | 38 | 1018.1 |
| 20260501153831 | 53 | 317 | 6.1 | 10.4 | 0.00 | 0.00 | 0.00 | 38 | 1018.1 |
| 20260501153345 | 53 | 277 | 4.3 | 11.3 | 0.00 | 0.00 | 0.00 | 38 | 1018.1 |
| 20260501152838 | 52 | 310 | 5.2 | 11.3 | 0.00 | 0.00 | 0.00 | 37 | 1018.1 |